TimeCST,TemperatureF,Dew PointF,Humidity,Sea Level PressureIn,VisibilityMPH,Wind Direction,Wind SpeedMPH,Gust SpeedMPH,PrecipitationIn,Events,Conditions,WindDirDegrees,DateUTC
12:53 AM,28.0,21.0,75,30.32,10.0,NW,5.8,-,N/A,,Overcast,310,2013-03-07 06:53:00
1:35 AM,28.4,21.2,74,30.29,10.0,WNW,4.6,-,N/A,,Overcast,300,2013-03-07 07:35:00
1:53 AM,27.0,19.9,75,30.33,10.0,WNW,6.9,-,N/A,,Overcast,300,2013-03-07 07:53:00
2:53 AM,26.1,19.9,78,30.34,10.0,WNW,6.9,-,N/A,,Overcast,300,2013-03-07 08:53:00
3:53 AM,26.1,19.0,75,30.35,10.0,WNW,4.6,-,N/A,,Overcast,300,2013-03-07 09:53:00
4:14 AM,24.8,19.4,80,30.31,10.0,WNW,4.6,-,N/A,,Overcast,300,2013-03-07 10:14:00
4:53 AM,25.0,19.0,78,30.35,10.0,NW,5.8,-,N/A,,Overcast,310,2013-03-07 10:53:00
5:22 AM,24.8,19.4,80,30.34,10.0,NNW,4.6,-,N/A,,Overcast,330,2013-03-07 11:22:00
5:53 AM,26.1,19.9,78,30.38,10.0,North,6.9,-,N/A,,Overcast,350,2013-03-07 11:53:00
6:26 AM,24.8,19.4,80,30.35,10.0,North,5.8,-,N/A,,Overcast,10,2013-03-07 12:26:00
6:53 AM,25.0,19.0,78,30.39,10.0,North,5.8,-,N/A,,Overcast,360,2013-03-07 12:53:00
7:27 AM,23.0,17.6,80,30.37,10.0,NNW,5.8,-,N/A,,Scattered Clouds,340,2013-03-07 13:27:00
7:53 AM,24.1,16.0,71,30.41,10.0,North,6.9,-,N/A,,Clear,10,2013-03-07 13:53:00
8:53 AM,25.0,14.0,63,30.42,10.0,North,8.1,-,N/A,,Clear,10,2013-03-07 14:53:00
9:53 AM,28.0,14.0,56,30.42,10.0,NNE,4.6,-,N/A,,Clear,20,2013-03-07 15:53:00
10:53 AM,28.0,15.1,58,30.42,10.0,NNE,5.8,-,N/A,,Clear,20,2013-03-07 16:53:00
11:53 AM,28.9,16.0,58,30.43,10.0,ENE,4.6,-,N/A,,Clear,60,2013-03-07 17:53:00
12:53 PM,28.9,16.0,58,30.41,10.0,ENE,5.8,-,N/A,,Clear,70,2013-03-07 18:53:00
1:53 PM,30.0,17.1,59,30.41,10.0,ENE,5.8,-,N/A,,Mostly Cloudy,60,2013-03-07 19:53:00
2:53 PM,28.9,18.0,64,30.42,10.0,ENE,6.9,-,N/A,,Clear,70,2013-03-07 20:53:00
3:53 PM,28.0,18.0,66,30.42,10.0,NE,6.9,-,N/A,,Clear,50,2013-03-07 21:53:00
4:53 PM,26.1,17.1,69,30.43,10.0,ENE,6.9,-,N/A,,Clear,70,2013-03-07 22:53:00
5:53 PM,19.9,12.9,74,30.45,10.0,NE,3.5,-,N/A,,Clear,50,2013-03-07 23:53:00
6:53 PM,17.1,10.9,77,30.46,10.0,Calm,Calm,-,N/A,,Clear,0,2013-03-08 00:53:00
7:53 PM,12.9,10.9,92,30.46,10.0,Calm,Calm,-,N/A,,Clear,0,2013-03-08 01:53:00
8:53 PM,12.9,10.9,92,30.46,10.0,Calm,Calm,-,N/A,,Clear,0,2013-03-08 02:53:00
9:53 PM,12.0,9.0,88,30.46,10.0,Calm,Calm,-,N/A,,Clear,0,2013-03-08 03:53:00
10:53 PM,12.9,9.0,84,30.47,10.0,Calm,Calm,-,N/A,,Clear,0,2013-03-08 04:53:00
11:53 PM,7.0,5.0,92,30.48,10.0,Calm,Calm,-,N/A,,Clear,0,2013-03-08 05:53:00